Flag for Germany Past Weather in Ingelheim am Rhein, Rhineland-Palatinate, Germany — Yesterday and Last 2 Weeks

Now
69 °F

Passing clouds.


Feels Like: 69 °F
Forecast: 60 / 74 °F
Wind: 6 mph from North

Location: Wiesbaden Airport

Current Time: Jun 25, 2016 at 12:13:59 AM

Latest Report: Jun 24, 2016 at 11:58 PM


Visibility: N/A

Pressure: 30.01 "Hg

Humidity: 79%

Dew Point: 62 °F

Location of Ingelheim am RheinLocation

Past Weather in Ingelheim am Rhein — Graph

°F

Ingelheim am Rhein Temperature Yesterday

Maximum temperature yesterday: 88 °F (at 1:58 PM)
Minimum temperature yesterday: 66 °F (at 4:58 AM)
Average temperature yesterday: 75 °F

High & Low Weather Summary for the Past Weeks

 TemperatureHumidityPressure
High90 °F (Jun 23, 3:58 PM)94% (Jun 12, 4:03 AM)30.27 "Hg (Jun 12, 4:03 AM)
Low46 °F (Jun 20, 4:58 AM)38% (Jun 10, 3:58 PM)29.51 "Hg (Jun 14, 3:58 PM)
Average63 °F75%29.89 "Hg
* Reported Jun 9 10:58 PM — Jun 24 10:58 PM, Ingelheim am Rhein, Weather by CustomWeather, © 2016

Note: Actual official high and low records may vary slightly from our data, if they occured in-between our weather recording intervals... More about our weather records

Advertising

Ingelheim am Rhein Weather History for the Previous 24 Hours

Scroll right to see more
 ConditionsComfort  
Time TempWeatherWind HumidityBarometerVisibility
10:58 PM
Fri, Jun 24
70 °FClear.3 mph79%29.98 "HgN/A
9:58 PM72 °FPassing clouds.7 mph83%29.99 "HgN/A
8:58 PM73 °FSunny.8 mph78%29.99 "HgN/A
7:58 PM74 °FSunny.10 mph73%30.00 "HgN/A
6:58 PM79 °FPassing clouds.12 mph65%29.99 "HgN/A
5:58 PM80 °FSunny.12 mph62%29.99 "HgN/A
4:58 PM82 °FSunny.10 mph58%29.99 "HgN/A
3:58 PM82 °FSunny.7 mph57%29.99 "HgN/A
2:58 PM72 °FDrizzle. Broken clouds.9 mph73%30.00 "HgN/A
1:58 PM88 °FBroken clouds.5 mph52%29.99 "HgN/A
12:58 PM86 °FSunny.3 mph59%29.99 "HgN/A
11:58 AM84 °FSunny.6 mph58%30.00 "HgN/A
10:58 AM82 °FSunny.5 mph56%30.01 "HgN/A
9:58 AM79 °FSunny.5 mph61%30.00 "HgN/A
8:58 AM78 °FSunny.3 mph63%30.00 "HgN/A
7:58 AM74 °FPassing clouds.3 mph71%30.01 "HgN/A
6:58 AM70 °FSunny.1 mph86%30.00 "HgN/A
5:58 AM66 °FClear.No wind88%30.00 "HgN/A
4:58 AM66 °FClear.2 mph89%30.00 "HgN/A
3:58 AM66 °FClear.3 mph88%30.00 "HgN/A
2:58 AM67 °FClear.1 mph86%30.00 "HgN/A
1:58 AM70 °FClear.3 mph79%30.00 "HgN/A
12:58 AM72 °FClear.3 mph75%30.01 "HgN/A
Weather by CustomWeather, © 2016

See weather overviewHow to use our weather pages